[[{"header":{"parameterUnit":"m.s-1","parameterCategory":1,"la1":30.2991,"la2":30.254,"lo1":-89.0895,"lo2":-89.0444,"dy":0.0017,"dx":0.0017,"nx":28,"ny":28,"refTime":"2025-01-21T09:00:00:Z","depth":0,"parameterNumber":2,"parameterNumberName":"U-component_of_WINDS"},"data":[0,0,0,0,0,0,0,0,0,0,0,0,0,0,0,0,0,0,0,0,0,0,0,0,0,0,0,0,0,0,0,0,0,0,0,0,0,0,0,0,0,0,0,0,0,0,0,0,0,0,0,0,0,0,0,0,0,0,1.1105,1.1104,0,1.1001,1.1,1.0999,1.0979,1.098,1.0981,1.0982,1.0871,1.0867,1.0863,0,0,0,0,0,0,0,0,0,0,0,0,0,1.1285,1.1282,1.1105,1.1104,1.1103,1.1001,1.1,1.0998,1.0979,1.098,1.0981,1.0982,1.0872,1.0868,1.0863,0,0,0,0,0,0,0,0,0,0,0,0,0,1.1196,1.128,1.1106,1.1081,1.1078,1.1001,1.1,1.0998,1.0979,1.098,1.0982,1.0983,1.0874,1.0868,1.0862,1.0802,0,0,1.0845,1.0843,0,0,0,0,0,0,0,0,1.1201,1.119,1.1086,1.1083,1.1079,1.1005,1.1022,1.0932,1.0979,1.1016,1.0982,1.0983,1.0914,1.0905,1.0883,1.0796,1.0792,1.0845,1.0841,1.0839,1.0837,0,0,0,0,0,0,0,1.1207,1.1194,1.1064,1.1085,1.108,1.1074,1.1063,1.1005,1.0959,1.1013,1.1012,1.1,1.0912,1.0888,1.088,1.079,1.0845,1.084,1.0836,1.0834,1.0648,1.0646,0,0,0,0,0,0,1.1218,1.1199,1.1067,1.1061,1.1145,1.107,1.1057,1.1027,1.096,1.0951,1.0999,1.0999,1.0897,1.0886,1.0876,1.0799,1.0839,1.0834,1.083,1.0649,1.0647,1.0645,0,0,0,0,0,0,1.1222,1.1207,1.1072,1.113,1.1112,1.1066,1.1032,1.1024,1.1,1.0949,1.094,1.0983,1.0898,1.0884,1.082,1.0794,1.0831,1.0826,1.0651,1.0648,1.0646,1.0645,0,0,0,0,0,0,1.1228,1.1208,1.1186,1.1129,1.1109,1.1019,1.103,1.1021,1.0991,1.0991,1.0931,1.0923,1.0898,1.0829,1.0815,1.0787,1.0822,1.0653,1.065,1.0647,1.0647,1.0643,1.0639,0,0,0,0,0,1.1234,1.1189,1.1185,1.1169,1.108,1.1017,1.1005,1.0979,1.0989,1.0965,1.0932,1.0925,1.0801,1.0822,1.0806,1.0777,1.0654,1.0651,1.0647,1.0649,1.0643,1.0639,0,0,0,0,0,0,1.1241,1.1181,1.1175,1.1111,1.107,1.1014,1.0983,1.0974,1.0928,1.0929,1.0897,1.0884,1.0822,1.0793,1.0819,1.0714,1.0728,1.0721,1.0734,1.0729,1.0725,1.0732,1.0817,0,0,0,0,0,1.1236,1.1192,1.1141,1.1088,1.1068,1.1029,1.1001,1.0984,1.094,1.0922,1.0884,1.084,1.0791,1.0759,1.0711,1.0644,1.0629,1.0616,1.0612,1.0609,1.0602,1.0563,1.0556,1.0634,1.0634,1.0634,0,0,1.1223,1.1185,1.1158,1.1089,1.1055,1.1008,1.1015,1.0965,1.093,1.0914,1.0851,1.0822,1.0771,1.0705,1.0674,1.0679,1.0578,1.0604,1.0603,1.0597,1.0559,1.0551,1.0545,1.0631,1.0632,1.0632,0,0,1.1176,1.1143,1.1095,1.1062,1.1011,1.0985,1.0974,1.092,1.0901,1.0838,1.0825,1.0782,1.0698,1.0662,1.0632,1.0572,1.0563,1.0558,1.0536,1.0498,1.0492,1.0487,1.0463,1.0455,1.0552,1.0552,1.0552,0,1.1166,1.1096,1.1072,1.1022,1.0991,1.0977,1.0927,1.0896,1.0831,1.0809,1.0817,1.0712,1.0676,1.0601,1.0586,1.0564,1.0548,1.0563,1.0496,1.0489,1.0484,1.0461,1.0452,1.0552,1.0552,1.0552,1.0552,0,1.1085,1.1037,1.1005,1.0944,1.091,1.0861,1.0827,1.0796,1.0782,1.0756,1.0692,1.0649,1.0592,1.0573,1.0559,1.0495,1.05,1.0502,1.0515,1.0476,1.0454,1.0445,1.0551,1.0551,1.0551,1.0551,0,0,1.1037,1.0965,1.0952,1.0924,1.0868,1.0829,1.078,1.0725,1.0697,1.0654,1.061,1.054,1.0542,1.0509,1.0491,1.0458,1.0411,1.0464,1.0462,1.0453,1.0335,1.0332,1.0322,1.0406,1.0404,1.0403,1.0339,0,1.0981,1.0892,1.0869,1.0793,1.0747,1.0733,1.069,1.065,1.0624,1.058,1.0552,1.0502,1.0509,1.0489,1.0456,1.0423,1.0386,1.0428,1.0362,1.036,1.0372,1.0311,1.0307,1.0249,1.033,1.0329,1.0328,0,1.0902,1.0858,1.0778,1.0727,1.0707,1.0668,1.0616,1.0575,1.0529,1.0513,1.0476,1.0462,1.0408,1.0426,1.035,1.0379,1.0352,1.0332,1.0329,1.0319,1.0339,1.0297,1.023,1.022,1.0314,1.0315,1.0316,0,1.0872,1.0793,1.0734,1.0711,1.0651,1.0623,1.0597,1.0552,1.0521,1.0475,1.0454,1.0403,1.0373,1.0333,1.0305,1.0321,1.0231,1.0247,1.0213,1.0214,1.0192,1.0193,1.0117,1.0179,1.018,1.018,1.018,0,1.081,1.076,1.072,1.0683,1.0627,1.0601,1.0546,1.0519,1.048,1.0437,1.0423,1.0382,1.0349,1.0303,1.0281,1.0221,1.0208,1.0192,1.0186,1.0191,1.0193,1.017,1.0172,1.0177,1.0178,1.0178,1.0179,0,1.0765,1.0736,1.067,1.0619,1.0605,1.0566,1.0522,1.0485,1.046,1.0406,1.0392,1.0352,1.0298,1.0266,1.0198,1.0183,1.0115,1.0113,1.0131,1.0127,1.0095,1.0097,0.9998,0.9983,1.0059,1.0058,1.0058,0,1.0725,1.0687,1.0632,1.0603,1.0576,1.053,1.0498,1.0471,1.0438,1.0383,1.0353,1.0299,1.0253,1.0168,1.0132,1.008,1.0074,1.0043,1.0065,1.0072,1.007,1.0071,1.0066,1.0038,1.0037,1.0036,1.0036,0,1.0657,1.0645,1.06,1.055,1.0513,1.0472,1.0431,1.0408,1.0374,1.0338,1.0284,1.0249,1.018,1.0125,1.007,1.0041,1.0032,1.003,1.0019,1.0022,1.0033,1.0024,1.0117,1.0031,1.0032,1.0032,1.0032,1.0032,1.0612,1.0577,1.0533,1.0483,1.045,1.0412,1.0375,1.0346,1.0301,1.0243,1.023,1.0172,1.0127,1.0052,1.0022,0.9976,0.9981,0.9965,0.9961,0.9957,0.9954,1.0044,0.9966,0.9966,0.9966,0.9966,0.9966,0,1.0541,1.0512,1.0467,1.0411,1.0372,1.0369,1.0324,1.0291,1.024,1.02,1.0156,1.0093,1.004,1.0001,0.9947,0.9917,0.9911,0.9903,0.9903,0.9896,0.9954,0.9968,0.9908,0.9908,0.9909,0.9909,0.9909,0.9909,1.0499,1.0439,1.0422,1.0345,1.0316,1.026,1.0234,1.0199,1.0166,1.0097,1.0053,1.0029,0.9988,0.9931,0.9882,0.9872,0.9851,0.9844,0.9832,0.9886,0.9892,0.9898,0.9911,0.984,0.984,0.9778,0.9777,0.9777]},{"header":{"parameterUnit":"m.s-1","parameterCategory":1,"la1":30.2991,"la2":30.254,"lo1":-89.0895,"lo2":-89.0444,"dy":0.0017,"dx":0.0017,"nx":28,"ny":28,"refTime":"2025-01-21T09:00:00:Z","depth":0,"parameterNumber":3,"parameterNumberName":"V-component_of_WINDS"},"data":[0,0,0,0,0,0,0,0,0,0,0,0,0,0,0,0,0,0,0,0,0,0,0,0,0,0,0,0,0,0,0,0,0,0,0,0,0,0,0,0,0,0,0,0,0,0,0,0,0,0,0,0,0,0,0,0,0,0,-7.1042,-7.1045,0,-7.13,-7.1303,-7.1306,-7.125,-7.1246,-7.1241,-7.1236,-7.1494,-7.1505,-7.1516,0,0,0,0,0,0,0,0,0,0,0,0,0,-7.0494,-7.0504,-7.1041,-7.1045,-7.1048,-7.1299,-7.1303,-7.1306,-7.1251,-7.1245,-7.124,-7.1234,-7.1491,-7.1504,-7.1517,0,0,0,0,0,0,0,0,0,0,0,0,0,-7.074,-7.0508,-7.1041,-7.1051,-7.1054,-7.1299,-7.1303,-7.1307,-7.1252,-7.1245,-7.1238,-7.1231,-7.1486,-7.1503,-7.1519,-7.1768,0,0,-7.1571,-7.1579,0,0,0,0,0,0,0,0,-7.0726,-7.076,-7.1046,-7.1051,-7.1055,-7.1236,-7.1204,-7.1462,-7.1254,-7.1177,-7.1236,-7.1228,-7.1414,-7.1436,-7.15,-7.178,-7.1791,-7.1573,-7.1583,-7.159,-7.1595,0,0,0,0,0,0,0,-7.0709,-7.0749,-7.1143,-7.105,-7.1056,-7.104,-7.1067,-7.1253,-7.1332,-7.1183,-7.118,-7.1212,-7.1414,-7.1484,-7.1506,-7.1795,-7.1572,-7.1587,-7.1598,-7.1604,-7.229,-7.2298,0,0,0,0,0,0,-7.0689,-7.0735,-7.1135,-7.1151,-7.087,-7.1056,-7.1086,-7.1185,-7.133,-7.1345,-7.1217,-7.1208,-7.1458,-7.1486,-7.1515,-7.1815,-7.159,-7.1606,-7.1616,-7.2282,-7.2292,-7.2301,0,0,0,0,0,0,-7.0678,-7.0725,-7.1125,-7.0942,-7.0992,-7.1073,-7.1184,-7.1194,-7.1263,-7.1356,-7.1369,-7.1274,-7.1454,-7.1491,-7.1706,-7.1823,-7.1614,-7.1629,-7.2273,-7.2285,-7.2296,-7.2419,0,0,0,0,0,0,-7.0662,-7.0722,-7.0819,-7.0945,-7.1002,-7.1314,-7.1192,-7.1204,-7.1293,-7.1283,-7.1413,-7.1427,-7.1451,-7.1681,-7.1723,-7.1843,-7.1642,-7.2263,-7.2278,-7.2293,-7.2405,-7.2434,-7.2458,0,0,0,0,0,-7.0643,-7.0841,-7.0824,-7.0872,-7.1125,-7.1321,-7.1354,-7.1379,-7.1303,-7.14,-7.146,-7.1423,-7.1803,-7.1703,-7.175,-7.1877,-7.2255,-7.2274,-7.2291,-7.2393,-7.2428,-7.2458,0,0,0,0,0,0,-7.0725,-7.0858,-7.084,-7.1086,-7.1193,-7.1312,-7.1435,-7.1415,-7.1544,-7.153,-7.1553,-7.1583,-7.1802,-7.186,-7.1746,-7.2125,-7.2018,-7.2047,-7.2079,-7.2113,-7.214,-7.2121,-7.1657,0,0,0,0,0,-7.0772,-7.0922,-7.1029,-7.1236,-7.129,-7.1354,-7.144,-7.145,-7.1561,-7.1605,-7.168,-7.1787,-7.1931,-7.2025,-7.2162,-7.2412,-7.2439,-7.2522,-7.2549,-7.2571,-7.2595,-7.2731,-7.277,-7.236,-7.236,-7.236,0,0,-7.087,-7.0961,-7.1054,-7.1255,-7.1339,-7.1492,-7.1392,-7.1558,-7.1671,-7.163,-7.1838,-7.1897,-7.2018,-7.2251,-7.2358,-7.2307,-7.2714,-7.2594,-7.261,-7.2623,-7.2754,-7.2793,-7.2827,-7.2372,-7.237,-7.2368,0,0,-7.1127,-7.1212,-7.1393,-7.148,-7.1609,-7.165,-7.1693,-7.1815,-7.1853,-7.2063,-7.2035,-7.2168,-7.2415,-7.2503,-7.258,-7.2869,-7.284,-7.2913,-7.3053,-7.3186,-7.3218,-7.3247,-7.335,-7.3387,-7.2936,-7.2937,-7.2937,0,-7.1233,-7.1465,-7.1488,-7.1658,-7.1747,-7.1718,-7.1901,-7.1982,-7.2149,-7.221,-7.215,-7.246,-7.2539,-7.2793,-7.2864,-7.2926,-7.2976,-7.2899,-7.3212,-7.3241,-7.3268,-7.3367,-7.3406,-7.2945,-7.2944,-7.2943,-7.2942,0,-7.1587,-7.1748,-7.1879,-7.2043,-7.2146,-7.2321,-7.237,-7.2471,-7.2471,-7.2517,-7.2731,-7.2824,-7.298,-7.3041,-7.3042,-7.3295,-7.3259,-7.3206,-7.31,-7.3315,-7.3408,-7.3446,-7.2956,-7.2953,-7.2951,-7.2949,0,0,-7.1905,-7.2081,-7.2128,-7.2202,-7.2342,-7.2466,-7.2639,-7.2793,-7.2879,-7.2994,-7.3139,-7.3348,-7.33,-7.3387,-7.3397,-7.3514,-7.3737,-7.3446,-7.3449,-7.3497,-7.4021,-7.4061,-7.4105,-7.3718,-7.3725,-7.3731,-7.4011,0,-7.2176,-7.2485,-7.2511,-7.2787,-7.2935,-7.2909,-7.3059,-7.316,-7.3207,-7.3338,-7.3388,-7.3537,-7.3462,-7.3514,-7.3628,-7.3686,-7.3843,-7.3666,-7.3852,-7.3859,-7.3825,-7.4154,-7.4197,-7.4457,-7.4048,-7.4054,-7.4058,0,-7.2534,-7.2663,-7.2954,-7.3073,-7.3137,-7.3272,-7.3415,-7.3541,-7.3654,-7.368,-7.3777,-7.3772,-7.3947,-7.3833,-7.4075,-7.3954,-7.4031,-7.4071,-7.4081,-7.4101,-7.3973,-7.4183,-7.4541,-7.458,-7.4116,-7.4112,-7.4107,0,-7.2738,-7.2983,-7.319,-7.3253,-7.3397,-7.3493,-7.3556,-7.3662,-7.3753,-7.3877,-7.3937,-7.4078,-7.4157,-7.4265,-7.4298,-7.4212,-7.4538,-7.4427,-7.4564,-7.4563,-7.4635,-7.463,-7.5011,-7.4683,-7.4682,-7.4681,-7.4681,0,-7.3039,-7.3219,-7.3283,-7.341,-7.361,-7.3637,-7.3833,-7.3891,-7.3985,-7.4121,-7.4105,-7.4233,-7.4268,-7.4401,-7.4426,-7.4623,-7.4657,-7.4682,-7.4687,-7.4685,-7.4682,-7.4737,-7.472,-7.4692,-7.469,-7.4687,-7.4686,0,-7.3301,-7.3352,-7.3575,-7.3693,-7.3727,-7.3869,-7.3969,-7.409,-7.4134,-7.4306,-7.4348,-7.4417,-7.4573,-7.4616,-7.4802,-7.4819,-7.505,-7.5037,-7.5013,-7.5014,-7.5148,-7.5136,-7.5579,-7.5638,-7.527,-7.5273,-7.5276,0,-7.3491,-7.3629,-7.3762,-7.3853,-7.3922,-7.4069,-7.4162,-7.4192,-7.429,-7.4428,-7.4532,-7.4687,-7.4812,-7.5062,-7.5127,-7.5269,-7.526,-7.5406,-7.5282,-7.5275,-7.5264,-7.5256,-7.527,-7.543,-7.5434,-7.5437,-7.5439,0,-7.3822,-7.384,-7.3976,-7.4122,-7.4234,-7.435,-7.446,-7.4535,-7.4581,-7.469,-7.4851,-7.4948,-7.5139,-7.5292,-7.5436,-7.5498,-7.5477,-7.5478,-7.5517,-7.5517,-7.5498,-7.5511,-7.5079,-7.5468,-7.5465,-7.5463,-7.5462,-7.546,-7.4055,-7.4176,-7.4289,-7.4441,-7.4528,-7.4631,-7.4751,-7.4811,-7.4946,-7.5106,-7.5114,-7.5289,-7.5396,-7.5587,-7.5657,-7.5792,-7.5749,-7.5806,-7.582,-7.5834,-7.5846,-7.5475,-7.5818,-7.5817,-7.5817,-7.5816,-7.5816,0,-7.4386,-7.4457,-7.4597,-7.4753,-7.4872,-7.4843,-7.4963,-7.5064,-7.5219,-7.5322,-7.5446,-7.563,-7.5778,-7.5855,-7.6001,-7.6095,-7.6088,-7.6132,-7.6126,-7.6141,-7.5876,-7.5828,-7.6135,-7.6135,-7.6135,-7.6135,-7.6134,-7.6134,-7.4572,-7.4777,-7.4808,-7.5054,-7.5123,-7.5296,-7.5367,-7.5462,-7.5544,-7.5751,-7.5875,-7.5925,-7.6017,-7.617,-7.6304,-7.6322,-7.6377,-7.6427,-7.644,-7.6192,-7.6159,-7.6128,-7.6083,-7.6438,-7.6439,-7.6693,-7.6696,-7.6698]}]]